Temp
20 19 20 21 22 23 23 23 22 24 25 21 20 21 22 22 22 22 22 23 22 21 21 22 20 19 18 16 14 12 10 10 9 9 8 7 7 6 7 7 6 7 7 7
20 19 22 23 23 22 21 21 22 24 23 21 20 20 21 21 22 23 22 22 21 21 22 16 17 18 17 15 13 12 10 9 9 8 8 7 7 6 7 6 6 6 6 6
21 22 22 22 21 22 21 20 21 21 22 19 19 18 18 20 21 21 21 21 20 19 19 15 14 15 15 13 13 11 10 9 9 8 8 8 7 7 6 5 5 5 5 5
20 22 22 21 21 21 20 22 21 21 19 17 21 20 20 22 21 20 21 21 19 18 19 15 13 13 13 13 12 11 10 9 9 8 8 8 7 5 6 6 6 5 5 5
21 20 19 19 21 21 20 19 19 19 18 17 19 17 20 21 20 21 21 22 21 20 17 15 13 13 13 13 12 11 10 9 8 8 8 8 7 7 7 6 5 4 4 4
18 17 18 20 17 18 18 19 18 18 16 15 18 19 20 20 21 22 21 21 20 16 14 14 14 14 13 12 11 10 10 9 9 8 7 7 7 7 7 6 5 4 3 3
19 18 17 17 17 16 17 18 14 14 13 18 20 18 23 24 22 21 21 21 20 15 13 13 11 10 11 10 10 9 9 8 8 7 6 6 6 7 7 6 5 3 3 3
20 20 17 16 18 19 15 17 14 15 18 20 13 17 20 22 23 22 21 21 17 15 13 12 11 11 11 10 9 9 8 8 8 7 6 6 6 6 6 6 5 4 4 3
19 20 16 16 18 19 17 15 19 15 11 14 20 20 21 21 21 20 20 19 16 15 14 13 12 11 11 10 8 8 8 7 7 6 5 5 5 5 5 5 5 4 4 3
21 20 19 14 15 16 16 16 16 14 14 13 19 19 22 23 23 20 19 18 17 15 14 12 11 10 11 10 9 8 7 6 7 6 4 4 4 4 4 4 4 3 3 3
19 19 18 14 13 16 13 14 15 17 15 15 18 21 22 21 21 19 19 19 19 16 14 13 11 12 12 11 9 7 7 7 6 5 4 3 3 3 3 3 3 3 3 2
17 17 14 18 19 17 17 17 18 17 17 14 18 20 23 21 19 18 19 20 20 17 15 14 12 10 10 10 8 7 6 6 5 5 3 3 2 2 2 2 2 1 1 1
14 13 12 15 17 15 15 17 18 18 17 18 16 19 23 23 22 19 18 18 17 17 15 14 12 10 10 9 8 7 6 5 5 4 3 2 1 1 1 1 0 -0 -0 -1
13 12 12 14 16 17 16 15 15 17 16 17 17 18 20 21 21 22 21 20 16 15 16 14 13 10 10 10 8 7 6 5 4 3 1 0 -1 -1 -1 -1 -1 -1 -2 -3
12 10 10 12 14 13 13 15 15 16 15 15 17 18 19 20 21 21 21 19 19 18 18 15 13 11 10 8 8 8 6 5 4 2 0 -1 -2 -2 -2 -2 -2 -3 -4 -4
11 11 9 10 10 11 12 14 14 14 15 16 17 16 19 19 20 20 20 20 19 18 18 17 13 10 7 7 8 7 6 4 3 0 -1 -2 -3 -3 -3 -3 -4 -5 -5 -5
9 9 10 11 11 10 10 11 13 13 15 15 15 17 19 19 19 19 20 20 19 17 17 13 11 10 7 7 8 6 5 3 1 -1 -2 -3 -4 -4 -4 -5 -6 -6 -6 -7
11 10 10 11 12 11 12 14 13 13 15 15 15 16 17 18 19 19 17 16 16 17 16 14 9 9 10 12 8 6 4 1 -1 -3 -4 -5 -5 -6 -6 -7 -7 -8 -8 -8
13 12 11 11 11 13 14 14 13 13 13 15 15 16 16 17 16 16 17 17 17 16 16 14 10 11 12 9 7 4 1 -2 -3 -4 -6 -7 -6 -8 -9 -9 -9 -8 -8 -9
11 11 11 11 12 12 14 15 15 16 13 15 16 16 15 15 13 15 16 16 12 11 11 9 9 10 8 6 4 0 -2 -4 -4 -5 -6 -7 -8 -8 -9 -8 -9 -9 -9 -10
9 9 10 11 11 11 12 13 13 11 14 16 16 16 16 15 15 16 14 11 10 10 10 9 7 5 5 4 1 -1 -4 -4 -4 -6 -8 -9 -9 -9 -8 -9 -10 -10 -11 -10
9 9 10 11 11 11 8 11 12 9 8 7 7 8 8 8 9 9 9 8 8 8 7 5 4 2 3 2 -1 -3 -4 -4 -6 -8 -10 -10 -11 -11 -10 -11 -11 -11 -11 -12
6 4 4 5 7 7 7 5 6 7 4 4 5 5 5 6 7 7 7 6 6 6 5 3 -0 -1 0 -0 -1 -4 -4 -6 -8 -10 -12 -13 -12 -12 -11 -12 -12 -13 -13 -13
4 6 4 3 6 5 7 8 8 7 5 5 5 5 6 6 6 5 6 7 5 2 3 -2 -4 -5 -5 -2 -3 -3 -5 -7 -10 -12 -14 -14 -14 -15 -14 -13 -13 -14 -14 -14
2 3 2 3 5 6 7 7 6 6 4 3 3 4 5 5 5 5 6 6 5 3 -2 -2 -3 -2 -2 -4 -5 -4 -7 -9 -12 -13 -14 -15 -15 -15 -16 -14 -14 -13 -13 -12
3 3 3 3 5 5 4 3 3 -1 -1 -1 0 0 1 2 3 4 4 4 4 5 3 -3 -3 -2 -3 -5 -6 -6 -8 -10 -12 -12 -14 -15 -15 -16 -15 -15 -14 -13 -13 -13
Height
783 794 794 778 776 770 771 775 775 752 746 763 760 753 746 740 735 734 728 720 718 716 709 711 718 727 735 743 751 759 766 772 777 781 785 789 791 795 798 801 803 805 808 811
787 788 766 765 765 769 773 776 768 749 743 755 755 752 740 738 730 721 719 714 710 710 706 708 713 721 728 736 745 753 759 765 770 774 778 784 787 792 795 798 800 802 804 806
771 761 759 766 768 772 769 776 767 761 750 755 754 755 745 729 720 717 710 700 703 705 705 709 713 718 724 730 736 743 751 757 762 767 774 779 784 788 791 793 795 798 800 802
762 752 755 763 764 767 766 753 755 756 765 777 745 740 730 720 718 716 704 694 697 698 697 703 708 714 719 727 734 740 746 751 756 761 765 768 770 775 778 782 788 791 794 796
753 754 759 763 755 756 758 756 758 757 766 767 758 767 720 711 717 708 698 687 686 686 690 697 702 707 716 723 728 735 741 745 749 753 754 759 765 770 774 779 784 787 790 792
754 753 754 749 757 755 757 758 761 761 769 772 753 752 714 714 703 693 688 682 678 684 690 693 697 704 710 717 723 729 734 739 743 746 750 751 756 763 767 772 777 781 785 786
748 750 749 750 756 760 760 764 793 790 793 744 726 737 696 684 685 682 681 674 671 678 686 691 695 699 704 710 716 722 728 733 738 740 744 747 748 754 757 761 767 773 777 780
750 747 746 744 740 739 759 756 781 789 758 726 747 725 693 672 665 662 661 662 669 676 679 686 690 694 699 703 709 715 720 725 729 732 734 740 744 746 751 755 760 765 769 773
741 732 733 734 729 732 743 754 731 760 773 767 702 689 669 664 664 661 660 664 671 675 677 680 685 689 693 697 700 703 710 716 720 723 727 732 739 741 742 749 755 759 763 766
716 732 715 736 735 734 735 732 748 754 771 772 705 706 680 670 658 659 666 666 666 670 675 678 680 683 689 692 695 700 705 707 711 716 720 724 730 736 739 743 746 752 757 761
717 725 718 735 737 726 744 740 736 727 739 743 731 686 651 659 653 659 662 663 663 667 670 671 674 676 680 685 689 692 696 700 703 707 713 718 722 727 732 737 740 744 750 754
719 726 738 714 704 710 710 713 713 719 716 726 708 682 655 656 658 658 658 657 655 656 660 664 664 668 672 675 680 681 689 691 694 699 705 711 715 719 724 730 735 741 746 750
739 736 740 724 715 716 720 708 704 699 701 703 705 684 654 648 654 655 657 656 656 656 656 655 659 663 664 668 671 673 677 682 687 692 697 702 707 712 717 724 731 736 741 745
728 744 744 731 717 712 716 710 707 704 708 698 690 681 664 653 650 644 642 644 651 651 650 650 650 652 653 655 659 664 667 672 677 683 690 695 700 707 714 722 729 734 737 742
725 730 738 722 717 712 713 705 702 702 699 700 679 671 663 647 645 639 631 636 639 641 644 644 645 643 642 647 649 653 657 662 669 676 683 690 697 703 710 717 723 729 733 738
715 708 723 721 718 712 705 694 692 684 681 676 669 669 641 640 636 628 625 622 629 630 628 628 633 633 634 635 637 641 647 652 659 667 676 684 691 698 704 709 714 720 725 730
715 708 706 693 695 702 698 692 673 671 660 655 659 634 623 627 625 615 610 614 616 615 615 619 620 620 621 623 626 630 636 645 653 659 666 674 682 690 697 703 710 716 720 726
689 694 690 674 679 668 651 653 659 647 638 631 627 620 615 611 597 604 611 613 607 605 606 606 610 610 609 610 616 624 633 640 647 655 660 667 676 684 688 695 701 709 715 720
665 669 668 667 653 633 633 632 633 632 614 614 618 609 599 600 604 603 598 596 597 598 596 595 594 597 600 601 607 615 625 633 642 647 652 658 666 675 684 691 696 701 707 712
662 657 658 649 631 621 613 619 616 605 606 609 593 584 593 596 608 593 587 587 590 588 587 587 587 591 594 598 603 610 618 625 631 633 640 650 658 663 672 679 689 694 699 704
657 653 639 626 615 615 614 611 613 627 597 591 594 587 585 591 587 578 580 581 577 577 578 579 582 585 588 594 601 607 611 613 618 629 638 644 651 657 665 675 680 688 694 699
652 645 633 624 616 616 629 615 620 629 621 625 625 624 620 614 606 601 598 596 589 586 583 584 587 589 592 594 601 604 604 609 616 625 633 641 647 653 659 668 676 683 688 697
673 680 681 671 644 640 638 647 643 642 637 634 629 627 624 619 615 612 610 606 598 593 592 589 589 590 593 594 596 598 601 607 613 621 627 635 645 645 653 662 668 679 687 693
682 671 672 672 643 645 634 620 624 637 636 631 626 628 623 613 610 608 600 594 591 591 590 588 589 589 589 589 592 597 601 608 615 621 626 634 640 643 648 656 666 669 676 687
693 681 671 661 651 639 639 635 636 632 637 625 629 629 611 606 607 612 600 589 583 583 582 580 583 581 578 580 584 591 596 601 613 618 621 630 639 644 646 651 657 661 672 677
684 676 669 659 648 646 641 642 642 642 634 637 635 618 614 609 608 603 600 583 580 573 575 571 571 572 568 570 572 576 581 591 603 610 618 621 632 637 637 644 657 665 668 676
Wind_Speed
7 5 11 15 16 16 15 16 16 22 11 10 15 19 16 11 14 15 17 19 13 12 9 26 34 33 33 34 35 35 34 32 32 31 29 26 27 25 22 19 18 15 11 8
4 13 21 9 12 7 9 13 20 18 11 7 9 14 13 10 16 22 19 20 16 7 6 10 26 31 34 37 37 36 36 35 35 35 33 23 27 23 21 19 18 16 13 11
19 10 14 7 7 9 12 10 15 15 9 6 6 7 12 9 17 16 17 21 9 10 10 9 11 24 31 35 39 40 38 38 37 34 31 19 25 19 21 21 20 18 16 11
16 18 20 15 18 10 21 9 9 11 6 6 4 15 8 6 12 10 16 18 9 11 8 9 10 17 28 30 34 36 37 38 38 35 36 37 34 26 26 32 24 21 18 13
8 4 6 9 11 9 6 2 2 4 6 6 5 9 5 9 9 11 13 16 8 10 12 11 13 23 27 32 36 37 37 38 37 40 42 40 34 28 23 23 26 23 17 14
14 4 3 4 3 2 3 1 3 3 2 9 11 12 3 6 8 6 9 14 11 9 10 9 15 25 26 33 34 36 38 38 39 41 41 41 38 30 32 32 28 23 18 14
6 16 2 4 4 2 4 3 3 4 1 15 10 10 16 5 8 11 13 13 9 11 11 10 13 13 23 30 34 36 36 34 38 41 42 41 39 37 37 36 32 26 23 19
3 9 14 8 12 8 9 9 6 7 10 21 2 9 9 11 12 10 14 10 9 10 9 10 11 13 21 27 32 34 36 34 38 42 42 42 40 40 39 37 33 29 25 20
7 12 3 6 3 9 6 6 4 1 2 4 12 14 11 11 11 10 10 8 9 9 10 10 9 15 21 26 34 38 36 36 39 42 39 40 40 39 39 35 32 29 25 21
5 11 8 4 3 3 4 1 2 2 2 7 18 13 16 13 18 9 6 7 7 9 8 9 9 11 22 26 30 33 33 36 36 38 39 38 40 40 38 35 34 31 26 22
3 5 8 6 8 11 2 4 5 1 5 7 10 15 4 6 5 8 8 5 6 9 10 10 9 16 25 27 31 32 35 36 39 40 38 36 39 40 38 38 35 32 28 24
8 2 5 15 8 2 6 11 12 10 16 4 12 23 5 5 9 10 8 8 7 8 10 10 11 12 20 24 27 33 32 35 38 40 39 39 39 41 40 38 34 30 27 23
10 3 2 9 14 2 5 6 11 11 11 19 18 22 10 21 18 9 7 7 9 10 9 10 8 11 13 21 25 29 32 36 35 38 39 38 39 40 40 38 34 30 27 24
8 3 10 14 16 15 12 11 11 13 11 20 21 26 31 30 27 25 22 15 9 10 12 10 8 10 13 23 26 28 30 36 38 39 36 34 35 35 36 35 32 30 27 24
6 11 19 24 25 25 23 24 25 23 19 21 25 29 28 31 24 24 23 13 14 12 12 12 11 11 13 14 23 28 30 35 37 34 34 32 31 35 35 34 33 30 26 22
10 10 13 24 31 32 29 29 25 32 30 31 34 30 34 29 26 32 28 28 19 17 19 17 11 11 11 13 24 28 29 33 38 35 32 32 34 36 36 37 35 32 26 22
7 7 8 19 23 27 24 33 38 34 31 30 29 38 38 34 32 34 33 25 24 16 15 10 11 10 10 17 27 26 30 32 35 35 35 37 39 40 40 38 35 30 26 21
17 19 14 18 16 23 17 22 31 36 35 33 34 37 37 33 36 29 13 14 20 21 21 16 8 8 15 24 27 25 30 33 33 31 33 36 39 38 39 38 34 29 24 21
23 22 15 14 19 24 4 23 25 21 33 34 30 32 35 29 24 24 26 23 22 19 21 17 10 13 18 21 27 32 30 31 31 32 35 38 41 38 37 34 34 30 25 21
26 25 20 19 22 25 17 21 24 28 22 13 24 28 26 22 13 18 23 21 12 12 11 10 7 9 14 20 30 28 26 30 32 36 38 38 40 42 41 41 36 30 25 21
7 14 24 23 20 13 5 16 9 15 22 21 22 24 23 16 13 16 13 11 8 9 10 6 9 8 17 26 31 21 26 30 32 32 33 37 40 42 41 38 34 30 25 18
8 8 8 14 20 29 15 9 15 14 17 20 20 19 20 19 16 14 17 15 10 9 4 2 3 4 11 23 25 19 22 25 31 34 34 34 37 36 39 37 32 27 23 19
6 2 4 6 6 10 9 12 19 10 13 13 14 16 16 17 19 17 16 12 10 11 8 5 4 5 14 23 25 17 21 31 34 33 32 34 36 38 39 36 33 27 22 18
9 14 7 14 3 24 31 28 14 15 14 14 10 12 15 17 18 16 16 16 8 5 7 7 6 7 9 24 27 22 23 31 31 29 29 31 33 33 35 31 30 26 25 18
10 17 14 22 21 21 15 15 20 23 18 16 17 15 13 13 15 14 15 13 10 7 5 9 9 10 14 21 24 24 31 36 30 28 29 29 26 28 28 26 28 25 22 22
12 15 13 17 20 19 22 20 17 16 17 16 14 18 17 17 19 20 18 14 14 16 10 7 11 13 18 24 28 35 39 40 34 30 29 30 28 28 28 27 21 14 19 16
Wind_Direction
191 182 219 215 216 234 254 264 261 271 265 188 230 246 252 248 272 263 261 265 256 252 241 201 188 192 189 188 183 184 184 185 185 183 179 184 191 191 198 196 198 199 197 200
209 219 235 258 261 259 276 276 272 275 286 179 259 260 264 255 258 259 264 266 267 240 233 152 167 183 184 179 182 184 188 190 189 191 192 189 197 201 202 197 202 201 202 207
227 205 218 225 241 261 238 244 262 265 282 217 271 259 250 243 252 264 264 258 239 216 216 168 160 174 174 175 181 185 189 192 192 194 192 182 179 176 180 194 201 200 207 211
253 238 245 249 256 228 268 239 263 271 270 243 88 290 224 240 266 238 254 267 226 215 185 166 164 168 173 181 184 187 192 193 195 193 191 189 179 171 198 202 199 201 205 207
219 176 197 232 235 187 258 71 296 285 269 312 218 276 244 188 242 237 247 259 248 226 176 166 173 173 180 184 188 191 194 196 195 196 199 199 200 203 204 195 190 197 202 210
256 123 225 217 88 118 128 305 247 249 230 256 203 217 206 186 211 219 232 252 244 163 162 173 169 170 180 188 190 193 196 198 199 201 204 205 202 190 180 180 192 197 201 206
225 233 152 145 154 180 174 158 296 301 268 264 185 237 249 224 181 196 219 239 214 163 166 170 166 171 178 186 190 193 196 199 201 202 207 211 207 197 190 195 197 193 194 200
247 270 176 182 212 176 180 176 174 225 258 278 130 252 254 222 230 215 210 233 155 161 162 181 179 183 188 186 190 192 198 199 201 204 207 212 211 203 206 208 205 203 202 200
196 251 45 160 197 162 182 196 211 253 44 313 269 279 279 231 232 233 210 158 168 173 181 181 179 183 187 191 194 196 198 201 201 205 205 208 209 205 204 203 206 205 203 201
247 261 182 154 73 278 189 261 119 231 228 240 277 288 271 270 260 225 159 204 210 197 183 193 190 186 195 200 199 200 202 202 201 204 204 203 205 207 207 204 203 204 203 205
266 231 253 122 200 186 167 233 226 236 187 222 264 271 281 145 155 167 205 203 208 194 202 201 195 197 195 198 198 200 202 202 203 204 201 200 203 204 205 207 206 204 202 204
206 203 258 241 225 261 232 215 203 222 240 236 236 259 195 327 132 130 151 183 212 199 198 199 202 190 193 196 194 198 201 202 203 202 200 201 200 200 201 204 203 200 199 204
354 302 268 280 296 359 229 240 250 253 252 247 244 253 245 268 268 249 210 220 213 218 207 215 190 189 197 200 199 198 199 205 200 200 196 195 195 196 199 202 199 196 198 203
86 283 272 259 261 288 284 258 241 239 254 258 256 270 277 271 273 282 281 280 239 222 219 226 216 199 199 201 198 199 201 200 197 195 190 189 189 191 194 199 196 196 199 202
170 230 224 239 245 260 262 260 273 273 257 252 268 268 265 270 277 269 272 274 269 282 263 238 226 215 206 199 198 199 199 194 191 186 186 186 185 190 194 195 194 196 198 201
189 230 216 236 241 251 260 265 260 252 256 255 253 259 262 259 267 271 273 270 282 265 265 261 236 222 209 200 199 198 194 187 184 181 181 178 181 186 190 192 192 193 193 196
199 202 208 244 237 244 250 244 250 256 251 244 251 250 254 261 255 257 266 284 278 270 261 245 234 225 213 208 201 192 189 179 177 177 175 175 178 183 189 191 191 193 192 193
228 232 238 252 249 231 227 229 233 243 248 250 249 251 257 257 258 264 271 265 275 278 286 272 231 229 227 226 206 188 177 173 174 173 172 173 178 181 184 186 188 188 187 190
228 235 248 245 241 257 225 218 223 230 241 245 257 258 252 261 262 270 266 257 265 269 271 269 235 229 228 201 189 171 165 168 170 176 177 177 178 177 179 180 183 184 182 185
234 232 235 241 249 252 239 236 245 257 261 241 242 248 256 254 252 253 259 261 247 231 241 249 211 200 190 183 174 161 166 170 183 184 181 179 179 178 179 183 183 181 181 180
226 230 241 239 245 251 238 270 301 246 263 268 263 262 264 256 243 258 261 255 232 225 235 200 180 192 194 177 169 170 172 191 188 178 177 176 180 180 181 181 177 178 174 172
269 276 256 260 267 267 4 301 247 330 356 1 355 349 344 342 345 4 351 340 329 292 318 203 205 216 190 180 173 179 193 185 174 173 172 175 176 175 174 173 172 173 169 174
273 351 307 311 328 319 338 332 313 307 331 337 328 317 315 316 323 328 325 322 324 330 306 273 227 186 191 193 189 190 194 177 170 168 168 169 172 172 173 169 165 164 171 170
302 296 307 323 311 311 315 317 360 360 338 325 326 306 301 306 306 294 301 294 274 239 249 214 179 197 208 204 206 211 180 174 167 166 164 166 165 164 167 166 169 162 165 168
285 306 294 285 284 300 301 323 324 327 329 354 339 319 324 327 310 296 302 299 297 271 232 196 209 218 227 201 202 201 184 174 171 170 166 166 165 163 160 162 169 164 176 180
264 267 279 285 298 302 310 324 329 346 337 328 318 327 323 318 304 300 289 294 295 298 287 222 222 224 220 201 194 191 188 179 173 170 171 169 167 167 160 151 142 159 163 162